QPF
0.01 0.02 0.02 0.02 0.02 0.02 0.04 0.04 0.03 0.02 0.01 0.01 0.02 0.03 0.04 0.05 0.05 0.06 0.07 0.07 0.06 0.05 0.04 0.03 0.03 0.03 0.03 0.02 0.02 0.01 0.02 0.02 0.02 0.01 0.01 0.01 0.02 0.02 0.03 0.04 0.04 0.04 0.05
0.03 0.02 0.02 0.02 0.03 0.02 0.02 0.04 0.04 0.03 0.02 0.02 0.02 0.02 0.03 0.03 0.03 0.03 0.03 0.04 0.05 0.04 0.03 0.03 0.03 0.02 0.02 0.01 0.01 0.01 0.01 0.02 0.02 0.02 0.01 0.01 0.02 0.03 0.03 0.03 0.03 0.03 0.04
0.03 0.04 0.03 0.03 0.03 0.03 0.03 0.04 0.04 0.04 0.03 0.02 0.02 0.02 0.02 0.02 0.03 0.03 0.03 0.03 0.03 0.03 0.03 0.03 0.03 0.03 0.03 0.02 0.02 0.02 0.02 0.02 0.02 0.03 0.03 0.02 0.03 0.03 0.04 0.04 0.04 0.04 0.03
0.02 0.03 0.03 0.04 0.04 0.03 0.02 0.03 0.04 0.04 0.03 0.02 0.02 0.02 0.02 0.02 0.02 0.02 0.03 0.03 0.04 0.05 0.05 0.05 0.05 0.05 0.06 0.06 0.05 0.05 0.04 0.04 0.03 0.04 0.04 0.03 0.03 0.04 0.04 0.04 0.04 0.04 0.04
0.02 0.02 0.02 0.02 0.03 0.04 0.04 0.03 0.03 0.04 0.04 0.04 0.04 0.03 0.03 0.02 0.02 0.02 0.02 0.03 0.04 0.05 0.05 0.05 0.05 0.06 0.06 0.07 0.07 0.06 0.06 0.06 0.05 0.05 0.04 0.04 0.04 0.05 0.04 0.04 0.04 0.04 0.04
0.02 0.02 0.02 0.01 0.01 0.02 0.02 0.02 0.02 0.02 0.03 0.04 0.05 0.06 0.05 0.05 0.05 0.05 0.04 0.05 0.05 0.05 0.05 0.05 0.05 0.06 0.06 0.06 0.06 0.06 0.06 0.05 0.06 0.05 0.04 0.03 0.03 0.04 0.04 0.05 0.05 0.05 0.04
0.02 0.01 0.02 0.02 0.01 0.01 0.01 0.01 0.01 0.01 0.02 0.02 0.03 0.04 0.04 0.04 0.04 0.04 0.04 0.05 0.06 0.05 0.05 0.04 0.05 0.05 0.05 0.05 0.05 0.06 0.06 0.05 0.05 0.05 0.05 0.04 0.03 0.03 0.03 0.04 0.05 0.05 0.05
0.02 0.01 0.01 0.01 0.01 0.01 0.01 0.02 0.02 0.01 0.01 0.02 0.03 0.03 0.04 0.04 0.04 0.04 0.04 0.03 0.04 0.04 0.04 0.04 0.04 0.04 0.05 0.05 0.05 0.05 0.05 0.05 0.05 0.05 0.04 0.03 0.03 0.03 0.04 0.04 0.05 0.06 0.06
0.01 0.01 0.01 0.01 0.01 0.01 0.01 0.01 0.02 0.02 0.01 0.01 0.02 0.03 0.04 0.04 0.05 0.04 0.04 0.02 0.02 0.03 0.03 0.03 0.03 0.03 0.04 0.04 0.05 0.05 0.04 0.03 0.03 0.04 0.05 0.05 0.04 0.04 0.04 0.06 0.06 0.06 0.07
0.01 0.01 0.01 0.01 0.01 0.01 0.01 0.01 0.01 0.02 0.02 0.02 0.02 0.03 0.03 0.03 0.04 0.04 0.04 0.03 0.02 0.02 0.02 0.02 0.02 0.02 0.03 0.03 0.04 0.05 0.05 0.05 0.04 0.03 0.02 0.03 0.04 0.05 0.05 0.04 0.05 0.05 0.05
0.00 0.00 0.00 0.00 0.00 0.01 0.01 0.01 0.01 0.02 0.02 0.02 0.02 0.02 0.02 0.02 0.02 0.02 0.02 0.02 0.02 0.01 0.01 0.01 0.01 0.01 0.02 0.03 0.03 0.03 0.04 0.04 0.04 0.03 0.03 0.02 0.03 0.03 0.04 0.04 0.04 0.04 0.04
0.00 0.00 0.00 0.00 0.00 0.01 0.01 0.01 0.01 0.01 0.02 0.02 0.02 0.02 0.02 0.02 0.02 0.02 0.02 0.02 0.02 0.02 0.01 0.01 0.01 0.01 0.01 0.02 0.02 0.02 0.02 0.02 0.03 0.04 0.03 0.02 0.02 0.03 0.03 0.03 0.02 0.03 0.03
0.00 0.00 0.00 0.00 0.00 0.01 0.01 0.01 0.01 0.01 0.01 0.02 0.02 0.02 0.02 0.01 0.01 0.01 0.02 0.01 0.01 0.01 0.01 0.01 0.01 0.01 0.01 0.01 0.01 0.02 0.02 0.02 0.02 0.02 0.02 0.02 0.02 0.02 0.03 0.02 0.02 0.02 0.02
0.00 0.00 0.00 0.00 0.00 0.00 0.01 0.01 0.01 0.01 0.01 0.01 0.02 0.01 0.01 0.01 0.01 0.01 0.01 0.01 0.01 0.01 0.01 0.01 0.01 0.01 0.01 0.01 0.01 0.02 0.02 0.02 0.02 0.02 0.02 0.02 0.02 0.02 0.03 0.03 0.02 0.01 0.02
0.00 0.00 0.00 0.00 0.00 0.01 0.01 0.01 0.01 0.01 0.01 0.01 0.01 0.01 0.01 0.01 0.01 0.01 0.01 0.01 0.01 0.01 0.01 0.01 0.01 0.01 0.01 0.02 0.02 0.02 0.01 0.02 0.02 0.02 0.02 0.02 0.02 0.02 0.03 0.02 0.02 0.02 0.02
0.00 0.00 0.00 0.00 0.00 0.00 0.01 0.01 0.01 0.01 0.01 0.01 0.01 0.01 0.01 0.01 0.01 0.01 0.01 0.01 0.01 0.01 0.02 0.01 0.01 0.01 0.01 0.01 0.02 0.02 0.02 0.01 0.02 0.02 0.02 0.02 0.02 0.02 0.02 0.02 0.02 0.02 0.02
0.00 0.00 0.00 0.00 0.00 0.00 0.00 0.01 0.01 0.01 0.01 0.01 0.01 0.01 0.01 0.01 0.01 0.01 0.01 0.01 0.01 0.01 0.02 0.01 0.01 0.01 0.01 0.01 0.01 0.01 0.02 0.02 0.02 0.02 0.02 0.02 0.02 0.02 0.02 0.02 0.02 0.02 0.02
0.00 0.00 0.00 0.00 0.00 0.00 0.00 0.00 0.00 0.01 0.01 0.01 0.01 0.01 0.01 0.01 0.01 0.01 0.01 0.01 0.01 0.01 0.01 0.01 0.01 0.01 0.01 0.01 0.01 0.02 0.02 0.02 0.02 0.02 0.02 0.02 0.02 0.02 0.02 0.02 0.02 0.02 0.02
0.00 0.00 0.00 0.00 0.00 0.00 0.00 0.01 0.01 0.01 0.01 0.01 0.00 0.00 0.01 0.01 0.00 0.00 0.00 0.01 0.01 0.01 0.01 0.01 0.01 0.01 0.01 0.01 0.01 0.01 0.01 0.02 0.02 0.02 0.02 0.02 0.02 0.02 0.02 0.02 0.02 0.02 0.02
0.00 0.00 0.01 0.01 0.01 0.01 0.01 0.01 0.01 0.01 0.01 0.01 0.00 0.00 0.01 0.01 0.01 0.00 0.00 0.01 0.01 0.01 0.01 0.01 0.01 0.01 0.01 0.01 0.01 0.01 0.02 0.02 0.02 0.02 0.02 0.02 0.02 0.02 0.02 0.02 0.02 0.02 0.02
0.01 0.01 0.01 0.01 0.01 0.01 0.01 0.01 0.02 0.02 0.01 0.01 0.01 0.01 0.01 0.01 0.01 0.01 0.01 0.01 0.01 0.01 0.01 0.01 0.01 0.01 0.01 0.01 0.01 0.02 0.02 0.02 0.01 0.02 0.02 0.02 0.02 0.02 0.02 0.02 0.02 0.02 0.02
0.01 0.01 0.01 0.01 0.01 0.01 0.01 0.01 0.02 0.01 0.01 0.01 0.01 0.01 0.01 0.01 0.01 0.01 0.01 0.01 0.01 0.01 0.01 0.01 0.01 0.01 0.01 0.01 0.02 0.02 0.02 0.01 0.01 0.01 0.02 0.02 0.02 0.02 0.02 0.02 0.02 0.01 0.01
0.01 0.01 0.01 0.01 0.01 0.02 0.02 0.02 0.02 0.02 0.01 0.01 0.01 0.01 0.01 0.01 0.01 0.01 0.00 0.01 0.01 0.01 0.01 0.01 0.01 0.01 0.01 0.01 0.01 0.01 0.02 0.02 0.01 0.02 0.02 0.02 0.02 0.02 0.02 0.02 0.01 0.02 0.01
0.01 0.01 0.02 0.02 0.02 0.02 0.02 0.02 0.02 0.02 0.01 0.01 0.01 0.01 0.01 0.01 0.01 0.00 0.00 0.00 0.00 0.00 0.01 0.01 0.01 0.01 0.01 0.01 0.01 0.01 0.01 0.02 0.02 0.02 0.02 0.02 0.02 0.02 0.02 0.02 0.01 0.01 0.02
0.01 0.01 0.01 0.02 0.02 0.02 0.02 0.02 0.01 0.01 0.01 0.01 0.01 0.01 0.01 0.01 0.01 0.00 0.00 0.00 0.00 0.00 0.00 0.01 0.01 0.01 0.01 0.01 0.01 0.01 0.01 0.01 0.02 0.02 0.03 0.03 0.03 0.02 0.02 0.02 0.02 0.02 0.02
0.01 0.01 0.02 0.02 0.01 0.02 0.02 0.01 0.01 0.01 0.01 0.01 0.01 0.01 0.01 0.01 0.01 0.01 0.01 0.01 0.01 0.01 0.01 0.01 0.01 0.01 0.01 0.01 0.01 0.01 0.01 0.02 0.02 0.02 0.03 0.03 0.03 0.03 0.02 0.02 0.02 0.02 0.02
MSLP
1025.16 1025.10 1025.04 1024.96 1024.86 1024.74 1024.61 1024.46 1024.29 1024.12 1023.92 1023.68 1023.39 1023.02 1022.57 1022.05 1021.46 1020.84 1020.20 1019.57 1018.97 1018.41 1017.90 1017.41 1016.94 1016.45 1015.95 1015.41 1014.83 1014.21 1013.56 1012.89 1012.21 1011.51 1010.82 1010.13 1009.45 1008.80 1008.20 1007.69 1007.30 1007.06 1007.02
1024.76 1024.64 1024.52 1024.41 1024.28 1024.14 1024.00 1023.86 1023.71 1023.55 1023.36 1023.13 1022.83 1022.45 1022.00 1021.47 1020.88 1020.27 1019.66 1019.06 1018.51 1018.01 1017.55 1017.12 1016.70 1016.29 1015.85 1015.39 1014.90 1014.37 1013.82 1013.25 1012.65 1012.02 1011.37 1010.68 1009.96 1009.24 1008.53 1007.88 1007.32 1006.91 1006.69
1024.32 1024.15 1023.98 1023.81 1023.64 1023.48 1023.32 1023.18 1023.04 1022.89 1022.71 1022.48 1022.19 1021.82 1021.38 1020.87 1020.31 1019.74 1019.17 1018.62 1018.12 1017.67 1017.26 1016.88 1016.52 1016.15 1015.78 1015.39 1014.98 1014.55 1014.10 1013.63 1013.13 1012.59 1011.99 1011.32 1010.59 1009.82 1009.02 1008.25 1007.56 1006.99 1006.60
1023.87 1023.64 1023.41 1023.18 1022.97 1022.77 1022.60 1022.44 1022.30 1022.15 1021.97 1021.76 1021.48 1021.13 1020.72 1020.25 1019.74 1019.21 1018.70 1018.22 1017.77 1017.38 1017.01 1016.68 1016.35 1016.04 1015.71 1015.38 1015.05 1014.71 1014.37 1014.00 1013.60 1013.15 1012.62 1012.00 1011.30 1010.51 1009.67 1008.82 1008.03 1007.34 1006.81
1023.42 1023.13 1022.84 1022.56 1022.30 1022.06 1021.86 1021.68 1021.52 1021.36 1021.19 1020.98 1020.71 1020.39 1020.01 1019.58 1019.13 1018.67 1018.22 1017.80 1017.42 1017.07 1016.75 1016.45 1016.17 1015.88 1015.60 1015.33 1015.06 1014.80 1014.55 1014.29 1013.99 1013.65 1013.21 1012.67 1012.02 1011.26 1010.43 1009.56 1008.72 1007.96 1007.35
1022.98 1022.64 1022.30 1021.97 1021.66 1021.39 1021.15 1020.94 1020.76 1020.58 1020.39 1020.17 1019.91 1019.61 1019.25 1018.87 1018.47 1018.06 1017.68 1017.32 1016.99 1016.70 1016.42 1016.15 1015.90 1015.65 1015.40 1015.17 1014.97 1014.78 1014.62 1014.45 1014.27 1014.03 1013.71 1013.27 1012.71 1012.03 1011.26 1010.43 1009.60 1008.83 1008.18
1022.55 1022.17 1021.78 1021.41 1021.07 1020.76 1020.49 1020.25 1020.03 1019.83 1019.61 1019.38 1019.11 1018.80 1018.46 1018.10 1017.73 1017.38 1017.04 1016.74 1016.46 1016.21 1015.97 1015.74 1015.51 1015.29 1015.08 1014.90 1014.75 1014.63 1014.55 1014.48 1014.40 1014.28 1014.08 1013.77 1013.33 1012.77 1012.11 1011.37 1010.61 1009.88 1009.25
1022.12 1021.70 1021.28 1020.89 1020.51 1020.18 1019.88 1019.61 1019.36 1019.12 1018.87 1018.60 1018.31 1017.98 1017.64 1017.28 1016.93 1016.61 1016.31 1016.04 1015.81 1015.59 1015.39 1015.20 1015.01 1014.82 1014.65 1014.52 1014.42 1014.37 1014.36 1014.38 1014.41 1014.40 1014.32 1014.14 1013.85 1013.43 1012.90 1012.29 1011.65 1011.01 1010.43
1021.65 1021.20 1020.77 1020.35 1019.96 1019.61 1019.29 1019.00 1018.72 1018.45 1018.16 1017.86 1017.53 1017.17 1016.81 1016.44 1016.10 1015.78 1015.50 1015.26 1015.06 1014.88 1014.72 1014.57 1014.42 1014.28 1014.16 1014.07 1014.03 1014.04 1014.10 1014.20 1014.31 1014.40 1014.44 1014.39 1014.23 1013.96 1013.58 1013.12 1012.61 1012.08 1011.59
1021.11 1020.64 1020.19 1019.76 1019.37 1019.01 1018.68 1018.38 1018.08 1017.79 1017.47 1017.13 1016.76 1016.38 1015.99 1015.60 1015.25 1014.93 1014.67 1014.45 1014.28 1014.14 1014.01 1013.91 1013.81 1013.72 1013.65 1013.62 1013.63 1013.69 1013.81 1013.97 1014.15 1014.31 1014.44 1014.50 1014.47 1014.34 1014.10 1013.78 1013.40 1013.00 1012.60
1020.47 1019.99 1019.53 1019.10 1018.70 1018.35 1018.02 1017.71 1017.41 1017.10 1016.77 1016.41 1016.01 1015.60 1015.19 1014.79 1014.43 1014.11 1013.85 1013.66 1013.51 1013.41 1013.33 1013.27 1013.23 1013.20 1013.19 1013.21 1013.27 1013.37 1013.53 1013.73 1013.95 1014.17 1014.36 1014.50 1014.56 1014.54 1014.42 1014.23 1013.97 1013.68 1013.37
1019.73 1019.24 1018.77 1018.34 1017.95 1017.60 1017.29 1016.99 1016.69 1016.38 1016.04 1015.67 1015.26 1014.84 1014.42 1014.01 1013.65 1013.34 1013.09 1012.92 1012.80 1012.74 1012.71 1012.70 1012.72 1012.74 1012.79 1012.85 1012.95 1013.09 1013.28 1013.49 1013.73 1013.98 1014.21 1014.39 1014.51 1014.57 1014.55 1014.46 1014.31 1014.11 1013.89
1018.91 1018.41 1017.94 1017.51 1017.13 1016.79 1016.48 1016.19 1015.91 1015.60 1015.27 1014.90 1014.50 1014.08 1013.66 1013.26 1012.91 1012.61 1012.39 1012.24 1012.16 1012.13 1012.15 1012.20 1012.26 1012.34 1012.44 1012.55 1012.68 1012.84 1013.03 1013.25 1013.49 1013.74 1013.97 1014.18 1014.34 1014.45 1014.50 1014.49 1014.42 1014.31 1014.16
1018.05 1017.54 1017.07 1016.64 1016.26 1015.93 1015.63 1015.35 1015.07 1014.78 1014.46 1014.10 1013.72 1013.31 1012.91 1012.53 1012.20 1011.93 1011.73 1011.61 1011.56 1011.58 1011.64 1011.73 1011.84 1011.97 1012.10 1012.24 1012.39 1012.56 1012.76 1012.97 1013.20 1013.44 1013.67 1013.88 1014.07 1014.21 1014.31 1014.36 1014.37 1014.33 1014.25
1017.20 1016.69 1016.22 1015.79 1015.41 1015.07 1014.77 1014.50 1014.22 1013.93 1013.62 1013.28 1012.91 1012.53 1012.16 1011.80 1011.50 1011.26 1011.09 1011.00 1010.98 1011.03 1011.13 1011.25 1011.40 1011.56 1011.72 1011.88 1012.05 1012.23 1012.42 1012.62 1012.84 1013.06 1013.29 1013.51 1013.71 1013.89 1014.04 1014.15 1014.21 1014.24 1014.22
1016.38 1015.88 1015.41 1014.99 1014.60 1014.26 1013.95 1013.67 1013.39 1013.10 1012.79 1012.45 1012.10 1011.74 1011.39 1011.07 1010.79 1010.58 1010.44 1010.37 1010.38 1010.45 1010.57 1010.72 1010.89 1011.07 1011.24 1011.42 1011.60 1011.78 1011.97 1012.17 1012.39 1012.61 1012.85 1013.08 1013.31 1013.52 1013.71 1013.87 1014.00 1014.09 1014.12
1015.61 1015.13 1014.68 1014.25 1013.86 1013.51 1013.19 1012.89 1012.59 1012.29 1011.97 1011.64 1011.30 1010.96 1010.63 1010.33 1010.08 1009.89 1009.77 1009.73 1009.75 1009.83 1009.96 1010.12 1010.30 1010.48 1010.67 1010.86 1011.04 1011.23 1011.43 1011.63 1011.85 1012.09 1012.34 1012.60 1012.86 1013.11 1013.35 1013.56 1013.75 1013.88 1013.97
1014.88 1014.42 1013.99 1013.57 1013.19 1012.83 1012.49 1012.17 1011.86 1011.54 1011.21 1010.87 1010.53 1010.20 1009.88 1009.60 1009.37 1009.20 1009.10 1009.07 1009.10 1009.18 1009.31 1009.47 1009.64 1009.83 1010.01 1010.20 1010.39 1010.59 1010.79 1011.01 1011.25 1011.51 1011.78 1012.07 1012.36 1012.66 1012.94 1013.21 1013.44 1013.62 1013.75
1014.12 1013.71 1013.31 1012.92 1012.54 1012.19 1011.85 1011.51 1011.18 1010.84 1010.50 1010.16 1009.82 1009.49 1009.19 1008.93 1008.71 1008.55 1008.46 1008.43 1008.46 1008.53 1008.65 1008.80 1008.96 1009.13 1009.31 1009.50 1009.69 1009.89 1010.11 1010.34 1010.60 1010.88 1011.18 1011.50 1011.82 1012.15 1012.47 1012.77 1013.03 1013.25 1013.40
1013.31 1012.95 1012.59 1012.24 1011.89 1011.56 1011.22 1010.89 1010.55 1010.20 1009.86 1009.52 1009.18 1008.86 1008.57 1008.32 1008.12 1007.98 1007.89 1007.86 1007.88 1007.94 1008.04 1008.16 1008.30 1008.46 1008.62 1008.80 1008.98 1009.19 1009.41 1009.65 1009.92 1010.22 1010.54 1010.87 1011.22 1011.57 1011.91 1012.23 1012.50 1012.73 1012.90
1012.41 1012.10 1011.80 1011.50 1011.20 1010.90 1010.59 1010.27 1009.95 1009.61 1009.28 1008.94 1008.62 1008.32 1008.05 1007.82 1007.63 1007.49 1007.40 1007.37 1007.37 1007.41 1007.49 1007.58 1007.70 1007.82 1007.97 1008.13 1008.30 1008.50 1008.72 1008.96 1009.24 1009.54 1009.86 1010.20 1010.55 1010.90 1011.24 1011.56 1011.84 1012.06 1012.23
1011.41 1011.17 1010.93 1010.70 1010.46 1010.21 1009.94 1009.66 1009.36 1009.06 1008.74 1008.43 1008.14 1007.86 1007.61 1007.40 1007.22 1007.09 1007.00 1006.95 1006.94 1006.96 1007.00 1007.06 1007.14 1007.24 1007.36 1007.50 1007.65 1007.84 1008.05 1008.29 1008.56 1008.85 1009.16 1009.49 1009.83 1010.16 1010.48 1010.78 1011.04 1011.26 1011.43
1010.34 1010.16 1010.00 1009.84 1009.66 1009.48 1009.27 1009.04 1008.79 1008.52 1008.24 1007.97 1007.70 1007.45 1007.22 1007.03 1006.87 1006.74 1006.64 1006.58 1006.54 1006.53 1006.54 1006.57 1006.61 1006.68 1006.77 1006.88 1007.02 1007.19 1007.39 1007.62 1007.88 1008.16 1008.45 1008.76 1009.07 1009.38 1009.67 1009.95 1010.19 1010.39 1010.55
1009.26 1009.15 1009.05 1008.96 1008.86 1008.74 1008.59 1008.41 1008.21 1007.99 1007.75 1007.51 1007.28 1007.05 1006.84 1006.66 1006.50 1006.37 1006.26 1006.17 1006.11 1006.06 1006.03 1006.03 1006.04 1006.08 1006.15 1006.25 1006.38 1006.54 1006.74 1006.96 1007.21 1007.48 1007.76 1008.05 1008.33 1008.61 1008.88 1009.12 1009.34 1009.53 1009.69
1008.24 1008.19 1008.16 1008.13 1008.09 1008.02 1007.93 1007.80 1007.64 1007.46 1007.26 1007.04 1006.83 1006.61 1006.41 1006.23 1006.06 1005.91 1005.77 1005.66 1005.56 1005.48 1005.42 1005.38 1005.37 1005.40 1005.46 1005.56 1005.69 1005.86 1006.07 1006.30 1006.55 1006.82 1007.10 1007.38 1007.65 1007.91 1008.15 1008.37 1008.58 1008.76 1008.91
1007.37 1007.37 1007.38 1007.40 1007.40 1007.37 1007.31 1007.22 1007.09 1006.92 1006.74 1006.53 1006.32 1006.10 1005.89 1005.68 1005.49 1005.30 1005.13 1004.98 1004.84 1004.73 1004.64 1004.59 1004.57 1004.59 1004.66 1004.77 1004.93 1005.14 1005.37 1005.63 1005.91 1006.21 1006.49 1006.78 1007.05 1007.30 1007.53 1007.74 1007.93 1008.10 1008.25
Thickness
5488 5487 5486 5486 5485 5484 5483 5483 5482 5481 5480 5479 5478 5478 5478 5479 5478 5477 5475 5474 5472 5470 5469 5467 5466 5466 5465 5464 5463 5463 5463 5463 5466 5470 5471 5473 5474 5476 5479 5481 5485 5488 5490
5477 5476 5475 5474 5474 5473 5472 5471 5471 5470 5469 5469 5468 5467 5467 5467 5466 5466 5464 5462 5460 5458 5457 5456 5455 5454 5453 5452 5451 5451 5451 5452 5453 5455 5457 5459 5461 5463 5466 5469 5472 5475 5477
5465 5464 5464 5463 5462 5462 5461 5461 5460 5459 5458 5457 5457 5456 5456 5455 5455 5454 5453 5451 5449 5447 5445 5444 5443 5442 5441 5440 5439 5439 5439 5440 5441 5442 5444 5445 5447 5449 5453 5456 5458 5461 5464
5454 5453 5453 5452 5452 5451 5450 5450 5449 5448 5447 5446 5446 5445 5444 5444 5443 5442 5441 5440 5438 5436 5434 5433 5432 5431 5430 5429 5428 5428 5428 5429 5429 5430 5432 5432 5434 5436 5438 5441 5445 5447 5450
5443 5442 5441 5441 5440 5439 5438 5438 5437 5436 5436 5435 5434 5434 5433 5433 5432 5431 5430 5428 5427 5425 5423 5422 5421 5421 5420 5419 5419 5418 5418 5419 5419 5419 5420 5420 5421 5423 5425 5427 5430 5434 5437
5432 5431 5430 5429 5429 5428 5427 5426 5425 5425 5424 5424 5423 5423 5422 5422 5422 5421 5419 5417 5415 5414 5412 5410 5410 5409 5409 5409 5409 5409 5409 5408 5408 5408 5408 5408 5410 5411 5413 5415 5416 5419 5424
5421 5420 5419 5418 5417 5416 5415 5414 5414 5413 5412 5412 5412 5411 5411 5410 5410 5410 5408 5406 5404 5402 5400 5399 5399 5399 5398 5397 5397 5398 5397 5397 5397 5397 5397 5397 5398 5400 5401 5404 5404 5405 5408
5410 5409 5408 5407 5405 5405 5404 5403 5402 5402 5401 5401 5401 5400 5399 5399 5399 5398 5397 5396 5393 5391 5389 5388 5387 5387 5387 5387 5387 5387 5387 5386 5386 5386 5387 5388 5388 5389 5391 5392 5393 5394 5396
5400 5399 5397 5396 5395 5394 5393 5392 5391 5391 5390 5390 5390 5389 5388 5387 5387 5387 5386 5384 5382 5380 5379 5378 5377 5376 5377 5378 5378 5378 5378 5377 5376 5377 5378 5378 5379 5380 5381 5381 5381 5381 5384
5390 5389 5388 5386 5385 5384 5383 5382 5381 5380 5379 5379 5379 5378 5378 5377 5376 5376 5375 5373 5372 5370 5369 5368 5367 5367 5368 5368 5368 5368 5368 5368 5367 5368 5367 5368 5368 5369 5370 5369 5369 5369 5370
5380 5379 5378 5377 5375 5374 5373 5372 5371 5370 5369 5368 5368 5368 5367 5367 5366 5366 5365 5363 5362 5361 5359 5358 5358 5358 5358 5359 5359 5359 5359 5359 5358 5357 5357 5358 5358 5359 5359 5358 5357 5357 5357
5370 5369 5367 5366 5366 5365 5363 5362 5361 5360 5359 5358 5358 5358 5358 5357 5357 5356 5355 5354 5353 5351 5350 5349 5349 5349 5349 5349 5349 5350 5350 5349 5348 5348 5347 5348 5348 5348 5348 5347 5347 5346 5346
5360 5358 5357 5357 5356 5355 5354 5353 5351 5350 5349 5349 5349 5348 5348 5348 5347 5347 5346 5346 5344 5343 5341 5341 5340 5340 5340 5340 5340 5340 5340 5339 5338 5337 5337 5337 5337 5338 5338 5338 5339 5338 5339
5350 5349 5347 5346 5346 5345 5345 5344 5343 5342 5341 5341 5341 5340 5339 5338 5338 5338 5337 5336 5336 5335 5333 5332 5332 5332 5331 5331 5330 5329 5329 5329 5328 5328 5328 5328 5328 5328 5329 5329 5329 5330 5330
5341 5340 5338 5338 5337 5336 5336 5335 5335 5335 5334 5333 5332 5331 5330 5330 5330 5330 5329 5329 5328 5327 5326 5324 5323 5322 5322 5321 5320 5320 5319 5319 5318 5318 5318 5318 5319 5319 5319 5319 5319 5320 5319
5332 5331 5330 5329 5329 5328 5328 5327 5327 5327 5327 5327 5326 5325 5324 5324 5324 5324 5324 5323 5322 5320 5318 5316 5315 5313 5312 5311 5310 5310 5310 5310 5309 5309 5309 5309 5309 5309 5309 5310 5309 5310 5310
5323 5322 5321 5321 5321 5320 5320 5319 5318 5318 5319 5319 5318 5318 5318 5317 5317 5316 5316 5315 5314 5312 5310 5308 5306 5305 5304 5303 5302 5302 5301 5301 5301 5301 5301 5300 5301 5300 5301 5301 5301 5301 5301
5315 5315 5314 5313 5313 5312 5311 5311 5310 5310 5310 5310 5310 5310 5310 5310 5310 5309 5308 5307 5305 5303 5301 5299 5298 5297 5296 5295 5294 5294 5294 5293 5293 5293 5292 5292 5292 5292 5293 5293 5293 5292 5292
5307 5306 5306 5305 5305 5304 5304 5303 5302 5302 5301 5301 5301 5301 5302 5302 5301 5300 5299 5297 5296 5294 5293 5292 5290 5289 5289 5288 5287 5287 5286 5286 5286 5285 5285 5285 5285 5285 5285 5286 5285 5286 5285
5300 5300 5299 5298 5297 5297 5296 5296 5295 5294 5294 5293 5293 5293 5293 5293 5292 5292 5291 5289 5288 5287 5286 5285 5284 5283 5282 5281 5280 5280 5280 5279 5279 5279 5279 5279 5279 5279 5279 5279 5279 5278 5278
5292 5292 5292 5291 5290 5290 5289 5288 5287 5287 5286 5286 5286 5286 5287 5286 5285 5284 5283 5283 5282 5281 5280 5279 5278 5277 5276 5275 5274 5274 5274 5273 5273 5273 5273 5273 5273 5273 5273 5273 5272 5272 5272
5285 5284 5284 5283 5283 5282 5282 5281 5280 5280 5279 5279 5279 5279 5280 5279 5278 5277 5277 5276 5275 5275 5274 5273 5272 5272 5271 5270 5269 5269 5268 5268 5268 5268 5268 5268 5268 5268 5268 5268 5267 5267 5266
5278 5278 5277 5277 5276 5277 5276 5274 5274 5273 5273 5273 5273 5273 5272 5272 5271 5271 5271 5271 5270 5270 5269 5268 5268 5267 5267 5266 5265 5264 5264 5264 5264 5264 5264 5264 5264 5264 5264 5263 5262 5262 5262
5272 5271 5270 5270 5269 5269 5268 5268 5267 5267 5267 5267 5267 5267 5266 5266 5266 5266 5266 5265 5265 5265 5264 5264 5263 5263 5263 5262 5261 5260 5260 5260 5260 5259 5259 5259 5259 5259 5259 5259 5258 5258 5258
5265 5265 5264 5264 5263 5263 5262 5262 5261 5261 5261 5261 5261 5261 5261 5261 5260 5261 5261 5260 5260 5260 5260 5260 5259 5259 5258 5258 5257 5257 5257 5256 5256 5256 5256 5255 5255 5255 5255 5255 5255 5254 5254
5260 5259 5258 5258 5257 5257 5256 5256 5255 5255 5255 5255 5255 5255 5255 5255 5255 5256 5256 5255 5256 5256 5256 5255 5255 5254 5254 5254 5254 5254 5254 5253 5253 5253 5252 5252 5252 5252 5252 5252 5252 5252 5251